Regional Weather Roundup
Issued by NWS Wakefield, VA

Home | Current Version | Previous Version | Text Only | Print | Product List | Glossary Off
Versions: 1 2 3 4 5 6 7 8 9 10 11 12 13 14 15 16 17 18 19 20 21 22 23 24 25 26 27 28 29 30 31 32 33 34 35 36 37 38 39 40 41 42 43 44 45 46 47 48 49 50

000
ASUS41 KAKQ 261310
RWRAKQ

REGIONAL WEATHER ROUNDUP
NATIONAL WEATHER SERVICE WAKEFIELD VA
800 AM EST MON JAN 26 2015

Note: "fair" indicates few or no clouds below 12,000 feet with no
significant weather and/or obstructions to visibility. * = Denotes
station may not report precipitation (e.g., rain,snow,etc.),
thunder or fog.

VAZ042-051-052>054-056-261400-
NORTHERN VIRGINIA

CITY           SKY/WX    TMP DP  RH WIND       PRES   REMARKS
WASH NATIONAL  LGT SNOW  37  31  78 NE13      29.82R
DULLES         LGT SNOW  33  31  92 E12G22    29.78S VSB 1   WCI  24
FORT BELVOIR   LGT RAIN  35  33  92 VRB6      29.81R
QUANTICO       LGT RAIN  39  36  89 E10       29.79S
FREDERICKSBRG* RAIN      39  39 100 NE6       29.76S
STAFFORD*      RAIN      38  32  77 CALM      29.81S
WARRENTON      LGT RAIN  39  39 100 E7        29.76S
CULPEPER*      RAIN      39  39 100 E3        29.76S
MANASSAS*      RAIN      37  37 100 E8        29.78R
LEESBURG*      LGT SNOW  34  34 100 E8G17     29.80S
WINCHESTER     LGT SNOW  34  32  93 NE5       29.76R VSB 3/4
FRONT ROYAL*   CLOUDY    32  32 100 CALM      29.73S
LURAY*         LGT SNOW  34  34 100 N5        29.72R
$$

VAZ048-049-060>072-079>083-261400-
CENTRAL AND SOUTH CENTRAL VIRGINIA

CITY           SKY/WX    TMP DP  RH WIND       PRES   REMARKS
RICHMOND       CLOUDY    40  38  93 NE3       29.74R
CHESTERFIELD*  CLOUDY    39  27  60 CALM      29.74F
PETERSBURG*    CLOUDY    39  39  97 NE3       29.74S
HANOVER        LGT RAIN  38  37  97 CALM      29.75F FOG
TAPPAHANNOCK*  CLOUDY    40  36  86 NE3       29.75F
QUINTON*       CLOUDY    38  36  94 CALM      29.74S
CHARLOTTSVILLE LGT RAIN  37  35  92 NE10      29.72S FOG
GORDONSVILLE*  CLOUDY    37  36  98 CALM      29.73R FOG
ORANGE*        RAIN      37  37 100 N6        29.75S
LOUISA*        RAIN      39  37  93 E3        29.72R
BUMPASS*       CLOUDY    38  37  98 E3        29.74R
FARMVILLE*     CLOUDY    42  42 100 NE3       29.69S FOG
CREWE*         CLOUDY    38  37  95 CALM      29.70R
FORT PICKETT*  CLOUDY    37  37  97 E5        29.70S
CHASE CITY*    CLOUDY    41  41 100 E3        29.68F
CLARKSVILLE*   CLOUDY    37  37 100 CALM      29.68S
SOUTH HILL*    CLOUDY    36  35  94 CALM      29.75F
LAWRENCEVILLE* CLOUDY    36  35  94 CALM      29.70F
EMPORIA*       CLOUDY    36  34  93 NE8       29.72F
$$

VAZ088>098-261400-
SOUTHEAST VIRGINIA

CITY           SKY/WX    TMP DP  RH WIND       PRES   REMARKS
NORFOLK        CLOUDY    44  36  73 E3        29.72F
VIRGINIA BEACH CLOUDY    46  39  76 NE5       29.72S
NORFOLK NAVAL  CLOUDY    46  38  73 E6        29.73S
WEST POINT*    CLOUDY    41  36  80 NE3       29.75S
SALUDA*        PTSUNNY   40  36  84 E3        29.74F
NEWPORT NEWS   CLOUDY    43  37  79 N6        29.73F
LANGLEY AFB    CLOUDY    41  39  91 NE5       29.73S
FORT EUSTIS    CLOUDY    41  40  95 SE6       29.71F
WILLIAMSBURG*    N/A     39  37  93 E3        29.74F
HR EXEC AP*    PTSUNNY   37  34  87 NE6       29.73F
FRANKLIN*      CLOUDY    34  34  98 NW3       29.72F
WAKEFIELD      MOCLDY    36  34  92 CALM      29.73F
$$

VAZ020-022-025-037-045-261400-
WEST CENTRAL AND SOUTHWEST VIRGINIA

CITY           SKY/WX    TMP DP  RH WIND       PRES   REMARKS
STAUNTON*      LGT RAIN  35  33  92 N5        29.71S
WAYNESBORO*    CLOUDY    34  34  98 CALM      29.68S
HOT SPRINGS VA FOG       32  32 100 CALM      29.58R VSB<1/4
LYNCHBURG      CLOUDY    37  37 100 N7        29.69S
DANVILLE       CLOUDY    38  35  89 CALM      29.68S
SOUTH BOSTON*  CLOUDY    39  37  95 CALM      29.69S
MARTINSVILLE   CLOUDY    32  32 100 NW5       29.69S
ROANOKE        CLOUDY    37  32  82 CALM      29.69S
BLACKSBURG     CLOUDY    31  30  94 CALM      29.67R
DUBLIN*        CLOUDY    35  34  94 CALM      29.66R
MARION*        LGT RAIN  37  35  92 W7        29.65S
HILLSVILLE*    MIX PCPN  35  33  94 CALM      29.62S
RICHLANDS*     LGT RAIN  36  34  92 SW5       29.63R
WISE*          LGT RAIN  36  36 100 W8        29.64R
ABINGDON*      DRIZZLE   39  38  96 CALM      29.65R
$$

MDZ021>025-VAZ099-100-261400-
SOUTHERN MARYLAND AND THE DELMARVA PENINSULA

CITY           SKY/WX    TMP DP  RH WIND       PRES   REMARKS
PATUXENT RIVER CLOUDY    38  34  85 E17       29.78F
BAY BRIDGE APT LGT SNOW  32  32 100 E7G17     29.84S
LEONARDTOWN    CLOUDY    37  34  87 NE5       29.79F
DOVER          FLURRIES  32  32 100 NE16      29.86S WCI  21
GEORGETOWN     LGT RAIN  37  32  82 NE15G28   29.83F
EASTON         LGT SNOW  36  36 100 E12G21    29.86F
CAMBRIDGE      CLOUDY    37  34  87 NE9       29.80F
SALISBURY      LGT RAIN  42  35  76 NE15      29.78F
OCEAN CITY     CLOUDY    42  37  82 NE13G21   29.80F
WALLOPS ISLAND CLOUDY    42  38  85 NE18G28   29.76F
ACCOMACK*      CLOUDY    43  36  75 E13       29.74F
$$

NCZ012>017-030>032-261400-
NORTH CENTRAL AND EASTERN NORTH CAROLINA

CITY           SKY/WX    TMP DP  RH WIND       PRES   REMARKS
ROANOKE RAPIDS PTSUNNY   34  34 100 CALM      29.70F FOG
RALEIGH        LGT RAIN  40  37  89 E3        29.68F FOG
ELIZABETH CITY CLOUDY    43  40  89 CALM      29.71F
AHOSKIE*       PTCLDY    35  34  96 CALM      29.71F FOG
EDENTON*       CLOUDY    38  37  96 CALM      29.69F
CURRITUCK*     NOT AVBL
KILL DEVIL HLS CLOUDY    47  45  94 NE3       29.70R
MANTEO         CLOUDY    46  43  87 NE5       29.70F
CAPE HATTERAS  CLOUDY    49  45  86 W6        29.70S
TARBORO*       FAIR      35  34  96 CALM      29.71F
GOLDSBORO      MOCLDY    37  37 100 CALM      29.68R
WASHINGTON     CLOUDY    37  37  97 CALM      29.70S
GREENVILLE     PTCLDY    36  36 100 CALM      29.72F
NEW BERN       CLOUDY    41  37  86 CALM      29.70S
WILMINGTON     CLOUDY    48  45  89 W6        29.67S
$$

VAZ048-261400-
ELSEWHERE

CITY           SKY/WX    TMP DP  RH WIND       PRES   REMARKS
HARRISBURG PA  LGT SNOW  24  19  81 E6        29.88R
BALTIMORE      LGT SNOW  30  28  93 E15       29.83S VSB 3/4 WCI  19
ANNAPOLIS      LGT SNOW  33  30  88 E8        29.84S VSB 3/4
ANDREWS AFB    LGT SNOW  32  32 100 E14       29.80S FOG     WCI  22
PHILADELPHIA   LGT SNOW  28  21  75 NE14G22   29.94R WCI  17
HENDERSON NC   LGT RAIN  39  37  92 CALM      29.69S
GREENSBORO     LGT RAIN  40  36  86 CALM      29.64S
ROCKY MOUNT    PTCLDY    34  33  96 S6        29.70S FOG
$$

VAZ100-261400-
MARINE

STATION/POSITION TIME  TEMP    WIND        PRES    WAVE   SWELL
                       AIR SEA DIR/SP/G            HT/PER HT/PER
                 (UTC) (F)     (DEG/KT/KT) (MB)    (FT/S) (FT/S)
BRANDYWINE LGT   1300   35 37   70/ 25/ 28 1010.3F
CAPE MAY NJ      1300   35 39   60/ 16/ 23 1010.3R
LEWES DE         1300   37 38   70/ 24/ 29 1009.8S
15NM E FENWICK I 1300   44 42              1008.8F   5/ 5
OCEAN-CITY-INLET 1300   42 40   70/  6/ 12 1008.9R
WACHAPREAGUE VA  1300   42 42   40/ 13/ 17 1007.3F
THOMAS POINT MD  1300   33 37   60/ 13/ 14 1011.2F
GOOSES REEF MD   1300   36     VRB 14/ 17  1008.2F
COVE POINT MD    1300   36      90/ 12/ 14 1008.6F
SOLOMONS ISLAND  1300      38                N/A
BISHOPS HEAD MD  1300   39 38   50/  9/ 13 1008.0F
PINEY POINT MD   1300           80/ 11/ 16   N/A
POTOMAC MD       1300   39      60/ 14/ 16 1007.0F
CAMBRIDGE MD     1300   37 36   60/ 14/ 17 1009.1R
LEWISETTA VA     1300   40 38   60/ 15/ 20 1007.1F
RAPPAHANNOCK LGT 1300           30/ 12/ 13 1007.5F
STINGRAY PT      1300   40      60/ 10/ 14 1007.8S
YORK RVR RNG VA  1300   41      50/ 14/ 15 1005.9F
YORKTOWN VA      1300   42 40   30/  5/  6 1006.7F
JAMESTOWN VA     1300   39      90/  4/  6   N/A
DOMINION TERM VA 1300   43      10/  1/  3 1006.5F
KIPTOPEKE VA     1300      46   70/  7/ 10   N/A
CHES BAY BRIDGE  1300   43 41   40/  7/  8 1006.0F
CAPE HENRY VA    1300   43      50/  4/  6 1005.4R
CHESAPEAKE LGHT  1200   46      70/ 14/ 14 1007.0F
WILLOUBY STN VA  1300   42      60/  6/  7 1007.0S
S CRANEY ISL VA  1300           50/  3/  4 1006.4S
CAPE HENRY BUOY  1300      43                N/A     2/ 9
1ST LANDING BUOY 1300   43      60/  6/  8 1006.3S
CAPE CHARLES BUO 1300      42                N/A     2/10   2/10
OFFSHORE WE BUOY 1300      47                N/A     2/ 8   2/ 8
64NM E OF VA BCH 1300   54 52   60/ 14/ 16 1005.3F   3/ 8   3/ 8
DUCK PIER NC     1300   47 44   50/ 10/ 12 1005.1S
44100 DUCK FRF   1300      44                N/A     2/ 9
44056 DUCK FRF   1300      43                N/A     2/ 8
OREGON INLET NC  1300   48 46   20/  2/  2 1005.5F
HATTERAS NC      1300   51 55  260/  3/  5 1006.0F


USA.gov is the U.S. government's official web portal to all federal, state and local government web resources and services.